TIANMU-1 09

Last updated on Wed Sep 23 2026 00:03:10 GMT+0000 (Coordinated Universal Time)

1 57401U 23101C 26265.60881428 .00004090 00000+0 14013-3 0 9996 2 57401 97.2453 313.1736 0004527 133.5237 226.6382 15.30746010176544
UTC large
Height (km)
Speed (km/s)
/
Latitude / Longitude
Inclination (degrees)
Orbital Period (minutes)
Azimuth
Elevation
Range (km)
Doppler Factor

Next 0 passes for location: London (51.5072 / 0.1276)

No passes found over London.
TIANMU-1 09